TimeCDT,TemperatureF,Dew PointF,Humidity,Sea Level PressureIn,VisibilityMPH,Wind Direction,Wind SpeedMPH,Gust SpeedMPH,PrecipitationIn,Events,Conditions,WindDirDegrees,DateUTC
12:53 AM,45.0,32.0,60,30.29,10.0,Calm,Calm,-,N/A,,Clear,0,2013-10-29 05:53:00
1:53 AM,42.1,32.0,67,30.28,10.0,Calm,Calm,-,N/A,,Clear,0,2013-10-29 06:53:00
2:53 AM,37.9,30.9,76,30.28,10.0,NNE,3.5,-,N/A,,Clear,30,2013-10-29 07:53:00
3:53 AM,39.9,34.0,79,30.27,10.0,Calm,Calm,-,N/A,,Clear,0,2013-10-29 08:53:00
4:53 AM,41.0,32.0,70,30.27,10.0,SE,4.6,-,N/A,,Clear,140,2013-10-29 09:53:00
5:53 AM,43.0,32.0,65,30.29,10.0,ESE,3.5,-,N/A,,Clear,110,2013-10-29 10:53:00
6:53 AM,41.0,32.0,70,30.28,10.0,SE,3.5,-,N/A,,Clear,140,2013-10-29 11:53:00
7:53 AM,37.9,33.1,83,30.28,10.0,ESE,4.6,-,N/A,,Clear,110,2013-10-29 12:53:00
8:53 AM,44.1,37.0,76,30.30,10.0,ESE,5.8,-,N/A,,Clear,120,2013-10-29 13:53:00
9:53 AM,46.9,37.9,71,30.30,10.0,SE,5.8,-,N/A,,Clear,140,2013-10-29 14:53:00
10:53 AM,48.9,41.0,74,30.29,10.0,SE,8.1,-,N/A,,Clear,130,2013-10-29 15:53:00
11:53 AM,50.0,42.1,74,30.27,10.0,SSE,8.1,-,N/A,,Clear,150,2013-10-29 16:53:00
12:53 PM,52.0,44.1,74,30.25,10.0,SSE,8.1,-,N/A,,Mostly Cloudy,160,2013-10-29 17:53:00
1:53 PM,54.0,48.0,80,30.20,9.0,South,9.2,-,N/A,,Scattered Clouds,170,2013-10-29 18:53:00
2:53 PM,55.0,50.0,83,30.16,8.0,SSE,10.4,-,0.00,,Mostly Cloudy,160,2013-10-29 19:53:00
3:53 PM,55.0,51.1,86,30.17,7.0,SE,6.9,-,N/A,,Overcast,130,2013-10-29 20:53:00
4:53 PM,55.0,50.0,83,30.17,8.0,SE,6.9,-,N/A,,Overcast,130,2013-10-29 21:53:00
5:53 PM,54.0,50.0,86,30.17,8.0,ESE,3.5,-,N/A,,Overcast,110,2013-10-29 22:53:00
6:25 PM,53.6,50.0,88,30.16,6.0,ESE,5.8,-,0.00,Rain,Light Rain,120,2013-10-29 23:25:00
6:53 PM,52.0,50.0,93,30.17,4.0,ESE,8.1,-,0.00,Rain,Light Rain,110,2013-10-29 23:53:00
7:07 PM,51.8,50.0,94,30.17,4.0,ESE,8.1,-,0.00,Rain,Light Rain,110,2013-10-30 00:07:00
7:28 PM,51.8,51.8,100,30.16,2.0,ESE,6.9,-,0.00,Rain,Light Rain,110,2013-10-30 00:28:00
7:34 PM,51.8,51.8,100,30.16,2.0,ESE,6.9,-,0.00,Rain,Light Rain,110,2013-10-30 00:34:00
7:46 PM,51.8,51.8,100,30.16,3.0,ESE,8.1,-,0.00,,Overcast,110,2013-10-30 00:46:00
7:53 PM,51.1,51.1,100,30.17,3.0,East,8.1,-,0.00,,Overcast,100,2013-10-30 00:53:00
8:12 PM,51.8,51.8,100,30.16,2.5,East,5.8,-,0.00,Rain,Light Rain,90,2013-10-30 01:12:00
8:25 PM,51.8,51.8,100,30.15,1.5,ESE,8.1,-,0.02,Rain,Rain,110,2013-10-30 01:25:00
8:46 PM,51.8,51.8,100,30.15,2.0,ESE,6.9,-,0.05,Rain,Light Rain,110,2013-10-30 01:46:00
8:53 PM,51.1,51.1,100,30.16,2.5,East,6.9,-,0.05,Rain,Light Rain,100,2013-10-30 01:53:00
9:02 PM,51.8,51.8,100,30.15,2.5,East,8.1,-,0.00,Rain,Light Rain,100,2013-10-30 02:02:00
9:53 PM,52.0,52.0,100,30.15,2.0,ESE,6.9,-,0.00,,Overcast,110,2013-10-30 02:53:00
10:08 PM,51.8,51.8,100,30.14,1.8,ESE,8.1,-,N/A,,Overcast,120,2013-10-30 03:08:00
10:18 PM,51.8,51.8,100,30.14,2.0,ESE,8.1,-,0.00,Rain,Light Rain,120,2013-10-30 03:18:00
10:53 PM,52.0,52.0,100,30.14,2.5,ESE,6.9,-,0.00,,Overcast,110,2013-10-30 03:53:00
11:18 PM,51.8,51.8,100,30.13,3.0,ESE,8.1,-,N/A,,Overcast,120,2013-10-30 04:18:00
11:28 PM,51.8,51.8,100,30.12,2.5,ESE,8.1,-,N/A,,Overcast,120,2013-10-30 04:28:00
11:41 PM,51.8,51.8,100,30.12,3.0,SE,6.9,-,N/A,,Overcast,130,2013-10-30 04:41:00
11:53 PM,52.0,52.0,100,30.12,2.5,SE,8.1,-,N/A,,Overcast,130,2013-10-30 04:53:00